Location: Newark
(31.5350°N, 35.0986°E)
Time: 11:26:33
(UTC+00:00)

Explorer 7 - Pass Details

Date: 27 October 2019
Orbit: 485 x 680 km, 50.3° (Epoch: 13 November)

Event Time Altitude Azimuth Distance (km) Brightness Sun altitude
Rises 12:21:58 0° 321° (NW) 2,565 10.2 28.4°
Reaches altitude 10° 12:24:16 10° 332° (NNW) 1,698 9.3 28.0°
Maximum altitude 12:27:46 33° 38° (NE) 872 7.6 27.5°
Drops below altitude 10° 12:31:24 10° 103° (ESE) 1,768 9.1 26.8°
Sets 12:33:50 0° 113° (ESE) 2,691 10.1 26.4°
